7 * 24
多渠道服务支持
STARLINK-11438 是 SpaceX Starlink 卫星互联网项目中的一颗低轨卫星,属于第 5 批次发射的星链卫星群。该卫星运行在约 550 公里的轨道高度,旨在为全球提供高速互联网接入服务。作为星链计划的一部分,STARLINK-11438 采用先进通信技术,支持宽带数据传输,并具备自动避障功能以确保太空安全。该卫星的部署有助于扩展 Starlink 在全球范围内的覆盖能力,特别是在偏远和网络基础设施薄弱的地区。
美国
(US)
| 数据来源 | 国际轨道数据 |
| 星历时间: | 2025-11-02T19:36:50+0800 22小时前 查看轨道信息 |
| 半长轴: | 6734.239km |
| 偏心率: | 0.0002012 |
| 轨道倾角: | 42.999° |
| 近地点辐角 | 309.424° |
| 升交点赤经 | 227.921° |
| 平近点角 | 50.645° |
| 近地点: | 354.749km |
| 远地点: | 357.459km |
| 周期: | 91.663分钟 |
| 每日圈数: | 15.709777 |